ZT541 GVAC-EGSS

Flight info

Callsign ZT541
Flight time N/A
Altitude 35000
Route DIMKI1A DIMKI DCT IPERA N873 UDATI DCT SAMAR DCT BEXAL DCT NAKOS DCT PINOX DCT TOSDI DCT ZMR DCT NUBLO DCT RONSI DCT DELOG DCT FUJTI DCT IDNUN DCT ATGEB DCT DIKRO UM185 ADLOG M185 TELTU
Aircraft A320/M-SDE3FGHIRWY/LB1

Departure

Time 2026-05-05 15:18
Airport Amílcar Cabral International Airport (GVAC)

Arrival

Time N/A
Airport London Stansted Airport (EGSS)
Time Latitude Longitude Altitude Speed Heading
2026-05-05 14:42 16.73366 -22.94495 190 ft 0 kts 86°
2026-05-05 15:07 16.73365 -22.94505 190 ft 4 kts 88°
2026-05-05 15:07 16.73365 -22.94533 184 ft 4 kts 94°
2026-05-05 15:08 16.73368 -22.94561 196 ft 4 kts 104°
2026-05-05 15:08 16.73378 -22.94587 195 ft 4 kts 135°
2026-05-05 15:08 16.73392 -22.94595 202 ft 1 kts 179°
2026-05-05 15:08 16.73395 -22.94596 201 ft 0 kts 179°
2026-05-05 15:14 16.73391 -22.94595 202 ft 2 kts 179°
2026-05-05 15:14 16.73356 -22.94595 195 ft 6 kts 179°
2026-05-05 15:14 16.73307 -22.94594 204 ft 8 kts 179°
2026-05-05 15:14 16.73249 -22.94594 191 ft 9 kts 180°
2026-05-05 15:15 16.73181 -22.94595 198 ft 10 kts 181°
2026-05-05 15:15 16.73105 -22.94603 200 ft 13 kts 202°
2026-05-05 15:15 16.73003 -22.94689 194 ft 21 kts 197°
2026-05-05 15:15 16.72853 -22.94691 195 ft 23 kts 179°
2026-05-05 15:16 16.72690 -22.94689 198 ft 24 kts 180°
2026-05-05 15:16 16.72526 -22.94687 196 ft 20 kts 179°
2026-05-05 15:16 16.72404 -22.94718 192 ft 19 kts 233°
2026-05-05 15:16 16.72407 -22.94845 198 ft 18 kts 297°
2026-05-05 15:17 16.72525 -22.94887 203 ft 28 kts 356°
2026-05-05 15:17 16.72947 -22.94890 197 ft 92 kts 360°
2026-05-05 15:17 16.73765 -22.94897 189 ft 141 kts 360°
2026-05-05 15:17 16.74862 -22.94910 391 ft 162 kts
2026-05-05 15:18 16.75995 -22.94920 994 ft 163 kts
2026-05-05 15:18 16.77128 -22.94927 1723 ft 163 kts
2026-05-05 15:18 16.78280 -22.94933 2188 ft 173 kts
2026-05-05 15:18 16.79564 -22.94939 2427 ft 195 kts
2026-05-05 15:19 16.81010 -22.94947 2610 ft 220 kts
2026-05-05 15:19 16.82619 -22.94958 2892 ft 243 kts 360°
2026-05-05 15:19 16.84354 -22.94969 3354 ft 259 kts
2026-05-05 15:19 16.86179 -22.94981 4029 ft 266 kts 359°
2026-05-05 15:20 16.88049 -22.94994 4706 ft 272 kts 359°
2026-05-05 15:20 16.89964 -22.94999 5346 ft 278 kts
2026-05-05 15:20 16.91883 -22.94694 6037 ft 282 kts 16°
2026-05-05 15:20 16.93693 -22.93885 6702 ft 286 kts 31°
2026-05-05 15:21 16.95348 -22.92709 7341 ft 290 kts 35°
2026-05-05 15:21 16.97013 -22.91498 7989 ft 294 kts 35°
2026-05-05 15:21 16.98705 -22.90271 8632 ft 298 kts 36°
2026-05-05 15:21 17.00418 -22.89032 9291 ft 302 kts 35°
2026-05-05 15:22 17.02155 -22.87776 9951 ft 305 kts 36°
2026-05-05 15:22 17.03930 -22.86494 10296 ft 320 kts 35°
2026-05-05 15:22 17.05829 -22.85124 10423 ft 342 kts 35°
2026-05-05 15:22 17.07840 -22.83672 10665 ft 356 kts 35°
2026-05-05 15:23 17.09894 -22.82188 11158 ft 362 kts 35°
2026-05-05 15:23 17.11951 -22.80699 11717 ft 365 kts 35°
2026-05-05 15:23 17.14051 -22.79183 12294 ft 369 kts 35°
2026-05-05 15:23 17.16172 -22.77652 12873 ft 372 kts 35°
2026-05-05 15:24 17.18309 -22.76108 13455 ft 375 kts 35°
2026-05-05 15:24 17.20466 -22.74549 14005 ft 379 kts 35°
2026-05-05 15:24 17.22645 -22.72973 14501 ft 382 kts 34°
2026-05-05 15:24 17.24848 -22.71378 14996 ft 386 kts 34°
2026-05-05 15:25 17.27065 -22.69771 15486 ft 390 kts 34°
2026-05-05 15:25 17.29303 -22.68147 15959 ft 393 kts 34°
2026-05-05 15:25 17.31563 -22.66508 16451 ft 397 kts 34°
2026-05-05 15:25 17.33842 -22.64855 16934 ft 400 kts 34°
2026-05-05 15:26 17.36141 -22.63186 17410 ft 404 kts 34°
2026-05-05 15:26 17.38464 -22.61500 17889 ft 408 kts 33°
2026-05-05 15:26 17.40782 -22.59820 18360 ft 412 kts 33°
2026-05-05 15:26 17.43149 -22.58104 18797 ft 415 kts 33°
2026-05-05 15:27 17.45527 -22.56376 19253 ft 417 kts 33°
2026-05-05 15:27 17.47922 -22.54636 19720 ft 420 kts 33°
2026-05-05 15:27 17.50333 -22.52887 20200 ft 423 kts 33°
2026-05-05 15:27 17.52757 -22.51132 20682 ft 425 kts 33°
2026-05-05 15:28 17.55205 -22.49360 21165 ft 428 kts 33°
2026-05-05 15:28 17.57659 -22.47578 21628 ft 430 kts 33°
2026-05-05 15:28 17.60125 -22.45782 22086 ft 433 kts 33°
2026-05-05 15:28 17.62606 -22.43972 22528 ft 436 kts 33°
2026-05-05 15:29 17.65103 -22.42151 22967 ft 438 kts 32°
2026-05-05 15:29 17.67614 -22.40321 23395 ft 441 kts 32°
2026-05-05 15:29 17.70141 -22.38481 23774 ft 444 kts 32°
2026-05-05 15:29 17.72684 -22.36628 24100 ft 447 kts 32°
2026-05-05 15:30 17.75246 -22.34761 24417 ft 450 kts 32°
2026-05-05 15:30 17.76950 -22.33520 24625 ft 452 kts 32°
2026-05-05 15:30 17.79542 -22.31629 24931 ft 455 kts 32°
2026-05-05 15:30 17.82146 -22.29726 25242 ft 458 kts 32°
2026-05-05 15:31 17.84771 -22.27811 25542 ft 461 kts 32°
2026-05-05 15:31 17.88282 -22.25251 25937 ft 465 kts 31°
2026-05-05 15:31 17.90065 -22.23988 26133 ft 466 kts 30°
2026-05-05 15:31 17.92822 -22.22181 26428 ft 468 kts 27°
2026-05-05 15:32 17.95641 -22.20459 26717 ft 470 kts 26°
2026-05-05 15:32 17.98500 -22.18778 27013 ft 472 kts 25°
2026-05-05 15:32 18.01380 -22.17094 27307 ft 475 kts 25°
2026-05-05 15:32 18.04272 -22.15383 27594 ft 478 kts 25°
2026-05-05 15:33 18.07165 -22.13637 27901 ft 481 kts 26°
2026-05-05 15:33 18.10074 -22.11849 28189 ft 484 kts 26°
2026-05-05 15:33 18.12987 -22.10041 28478 ft 487 kts 26°
2026-05-05 15:33 18.15871 -22.08243 28765 ft 489 kts 26°
2026-05-05 15:34 18.18795 -22.06422 29180 ft 488 kts 26°
2026-05-05 15:34 18.21721 -22.04609 29597 ft 488 kts 26°
2026-05-05 15:34 18.24653 -22.02800 30006 ft 488 kts 26°
2026-05-05 15:34 18.27583 -22.00994 30350 ft 489 kts 25°
2026-05-05 15:35 18.30517 -21.99184 30640 ft 490 kts 25°
2026-05-05 15:35 18.33462 -21.97367 30936 ft 492 kts 25°
2026-05-05 15:35 18.36417 -21.95543 31221 ft 493 kts 25°
2026-05-05 15:35 18.39381 -21.93709 31510 ft 495 kts 25°
2026-05-05 15:36 18.42352 -21.91867 31798 ft 497 kts 25°
2026-05-05 15:36 18.45333 -21.90017 32090 ft 498 kts 25°
2026-05-05 15:36 18.48327 -21.88161 32370 ft 500 kts 25°
2026-05-05 15:36 18.51329 -21.86301 32651 ft 502 kts 25°
2026-05-05 15:37 18.54342 -21.84435 32937 ft 503 kts 24°
2026-05-05 15:37 18.57367 -21.82562 33217 ft 505 kts 24°
2026-05-05 15:37 18.60405 -21.80683 33494 ft 507 kts 24°
2026-05-05 15:37 18.63453 -21.78797 33752 ft 509 kts 24°
2026-05-05 15:38 18.66507 -21.76901 34025 ft 510 kts 24°
2026-05-05 15:38 18.69565 -21.74995 34284 ft 511 kts 24°
2026-05-05 15:38 18.72619 -21.73091 34574 ft 510 kts 24°
2026-05-05 15:38 18.75671 -21.71187 34858 ft 509 kts 24°
2026-05-05 15:39 18.78729 -21.69284 34986 ft 510 kts 24°
2026-05-05 15:39 18.84915 -21.65446 35012 ft 521 kts 24°
2026-05-05 15:40 18.91175 -21.61553 35014 ft 523 kts 24°
2026-05-05 15:40 18.97398 -21.57668 35016 ft 523 kts 24°
2026-05-05 15:41 19.03651 -21.53756 35011 ft 522 kts 25°
2026-05-05 15:41 19.09903 -21.49850 35017 ft 522 kts 24°
2026-05-05 15:42 19.16161 -21.45949 35024 ft 522 kts 25°
2026-05-05 15:42 19.22403 -21.42041 35036 ft 521 kts 25°
2026-05-05 15:43 19.28636 -21.38132 35032 ft 520 kts 25°
2026-05-05 15:43 19.34860 -21.34232 35032 ft 520 kts 25°
2026-05-05 15:44 19.41074 -21.30329 35036 ft 519 kts 25°
2026-05-05 15:44 19.47235 -21.26463 35033 ft 518 kts 25°
2026-05-05 15:45 19.53428 -21.22577 35031 ft 517 kts 25°
2026-05-05 15:45 19.59617 -21.18689 35025 ft 517 kts 25°
2026-05-05 15:46 19.65799 -21.14805 35026 ft 516 kts 25°
2026-05-05 15:46 19.71973 -21.10909 35029 ft 516 kts 25°
2026-05-05 15:47 19.78134 -21.07008 35026 ft 515 kts 25°
2026-05-05 15:47 19.84257 -21.03146 35027 ft 515 kts 25°
2026-05-05 15:48 19.90425 -20.99257 35024 ft 516 kts 25°
2026-05-05 15:48 19.96593 -20.95355 35025 ft 516 kts 25°
2026-05-05 15:49 20.02756 -20.91455 35025 ft 516 kts 25°
2026-05-05 15:49 20.08918 -20.87553 35027 ft 515 kts 25°
2026-05-05 15:50 20.15034 -20.83673 35023 ft 515 kts 25°
2026-05-05 15:50 20.21190 -20.79765 35020 ft 515 kts 25°
2026-05-05 15:51 20.27347 -20.75849 35012 ft 515 kts 25°
2026-05-05 15:51 20.33504 -20.71940 35008 ft 515 kts 25°
2026-05-05 15:52 20.39670 -20.68019 35006 ft 516 kts 25°
2026-05-05 15:52 20.45781 -20.64109 35006 ft 516 kts 25°
2026-05-05 15:53 20.51937 -20.60164 35006 ft 516 kts 25°
2026-05-05 15:53 20.58102 -20.56226 35004 ft 516 kts 25°
2026-05-05 15:54 20.64273 -20.52285 35004 ft 517 kts 25°
2026-05-05 15:54 20.70435 -20.48335 35006 ft 517 kts 25°
2026-05-05 15:55 20.77024 -20.44097 35005 ft 518 kts 25°
2026-05-05 15:55 20.83196 -20.40122 35009 ft 518 kts 25°
2026-05-05 15:56 20.89380 -20.36146 35001 ft 518 kts 25°
2026-05-05 15:56 20.95567 -20.32173 34998 ft 519 kts 25°
2026-05-05 15:57 21.01763 -20.28190 35001 ft 519 kts 25°
2026-05-05 15:57 21.07921 -20.24221 35001 ft 520 kts 25°
2026-05-05 15:58 21.14116 -20.20219 34999 ft 520 kts 25°
2026-05-05 15:58 21.20313 -20.16211 34999 ft 520 kts 25°
2026-05-05 15:59 21.26524 -20.12190 34999 ft 521 kts 25°
2026-05-05 15:59 21.32744 -20.08165 35002 ft 521 kts 25°
2026-05-05 16:00 21.38953 -20.04144 35005 ft 521 kts 25°
2026-05-05 16:00 21.45158 -20.00116 35005 ft 521 kts 25°
2026-05-05 16:01 21.51366 -19.96085 35007 ft 522 kts 25°
2026-05-05 16:01 21.57537 -19.92082 35003 ft 522 kts 25°
2026-05-05 16:02 21.63749 -19.88037 35001 ft 522 kts 25°
2026-05-05 16:02 21.69968 -19.83985 35002 ft 522 kts 25°
2026-05-05 16:03 21.76179 -19.79936 35000 ft 522 kts 26°
2026-05-05 16:03 21.82391 -19.75883 35004 ft 522 kts 25°
2026-05-05 16:04 21.88602 -19.71832 35001 ft 522 kts 26°
2026-05-05 16:04 21.93765 -19.68461 34982 ft 522 kts 26°
2026-05-05 16:05 22.00982 -19.63729 34986 ft 522 kts 26°
2026-05-05 16:05 22.06143 -19.60339 34982 ft 522 kts 26°
2026-05-05 16:06 22.12341 -19.56272 34990 ft 521 kts 26°
2026-05-05 16:06 22.18542 -19.52207 34990 ft 521 kts 26°
2026-05-05 16:07 22.24733 -19.48138 35000 ft 521 kts 26°
2026-05-05 16:07 22.30928 -19.44058 35002 ft 521 kts 26°
2026-05-05 16:08 22.37116 -19.39977 35007 ft 521 kts 26°
2026-05-05 16:08 22.43304 -19.35896 35007 ft 521 kts 26°
2026-05-05 16:09 22.49448 -19.31847 35009 ft 521 kts 26°
2026-05-05 16:09 22.55627 -19.27764 35000 ft 520 kts 26°
2026-05-05 16:10 22.61805 -19.23680 35015 ft 520 kts 26°
2026-05-05 16:10 22.67978 -19.19586 35012 ft 520 kts 26°
2026-05-05 16:11 22.74150 -19.15494 35006 ft 520 kts 26°
2026-05-05 16:12 22.86470 -19.07308 35008 ft 519 kts 26°
2026-05-05 16:13 23.01850 -18.97063 35007 ft 518 kts 27°
2026-05-05 16:13 23.07957 -18.92995 35009 ft 518 kts 26°
2026-05-05 16:14 23.20240 -18.84800 35008 ft 518 kts 27°
2026-05-05 16:15 23.32513 -18.76584 35004 ft 518 kts 27°
2026-05-05 16:16 23.44738 -18.68384 35003 ft 518 kts 27°
2026-05-05 16:17 23.53925 -18.62204 35003 ft 517 kts 27°
2026-05-05 16:18 23.63111 -18.56019 35008 ft 517 kts 27°
2026-05-05 16:19 23.72289 -18.49825 35004 ft 517 kts 27°
2026-05-05 16:19 23.81420 -18.43662 35002 ft 517 kts 27°
2026-05-05 16:20 23.93643 -18.35397 34998 ft 517 kts 27°
2026-05-05 16:22 24.08918 -18.25023 35000 ft 517 kts 27°
2026-05-05 16:23 24.21089 -18.16729 35000 ft 517 kts 27°
2026-05-05 16:23 24.30247 -18.10497 35004 ft 517 kts 27°
2026-05-05 16:24 24.36355 -18.06340 34996 ft 517 kts 27°
2026-05-05 16:25 24.45504 -18.00080 35002 ft 517 kts 27°
2026-05-05 16:25 24.54654 -17.93796 35004 ft 517 kts 27°
2026-05-05 16:26 24.66815 -17.85466 35008 ft 517 kts 27°